User: anonymous
Location: El Centro
(32.7920°N, 115.5620°W)
Time: 14:11:54
(UTC-07:00)
Language:

Hamsat - Orbit

View from above orbital plane
View from above orbital plane
View from above satellite
View from above satellite

Ground track
Ground track

The orbit data is extracted from the following two-line orbital elements,

1 28650U 05017B   14293.49313090  .00003625  00000-0  41847-3 0  8860
2 28650 097.5637 292.2519 0026638 104.0339 256.3841 14.85954074511839
Epoch (UTC): 20 October 2014 11:50:06
Eccentricity: 0.0026638
inclination: 97.5637°
perigee height: 592 km
apogee height: 629 km
right ascension of ascending node: 292.2519°
argument of perigee: 104.0339°
revolutions per day: 14.85954074
mean anomaly at epoch: 256.3841°
orbit number at epoch: 51183

The dashed part of the orbit path shows where the satellite is in the earth's shadow,  

DLR